| time (UTC) | temp C | wind direction | speed KPH | gust KPH | rain 1hr cm | rain 24hr cm | rain mn cm | humidity % | barometer mb |
| 20260505035935 | 16 | 205 | 11.3 | 24.1 | 0.00 | 0.00 | 0.00 | 49 | 1015.8 |
| 20260505035435 | 16 | 201 | 9.7 | 24.1 | 0.00 | 0.00 | 0.00 | 49 | 1015.9 |
| 20260505034935 | 16 | 193 | 9.7 | 22.5 | 0.00 | 0.00 | 0.00 | 49 | 1016.0 |
| 20260505034435 | 16 | 196 | 11.3 | 22.5 | 0.00 | 0.00 | 0.00 | 48 | 1016.1 |
| 20260505033937 | 16 | 195 | 8.0 | 20.9 | 0.00 | 0.00 | 0.00 | 49 | 1016.1 |
| 20260505033435 | 16 | 199 | 11.3 | 25.7 | 0.00 | 0.00 | 0.00 | 49 | 1016.1 |
| 20260505032935 | 16 | 193 | 9.7 | 25.7 | 0.00 | 0.00 | 0.00 | 49 | 1016.2 |
| 20260505032435 | 16 | 196 | 8.0 | 24.1 | 0.00 | 0.00 | 0.00 | 48 | 1016.2 |
| 20260505031935 | 17 | 198 | 9.7 | 24.1 | 0.00 | 0.00 | 0.00 | 47 | 1016.3 |
| 20260505031435 | 17 | 193 | 8.0 | 22.5 | 0.00 | 0.00 | 0.00 | 47 | 1016.4 |
| 20260505030935 | 17 | 196 | 9.7 | 20.9 | 0.00 | 0.00 | 0.00 | 46 | 1016.4 |
| 20260505030435 | 17 | 198 | 8.0 | 24.1 | 0.00 | 0.00 | 0.00 | 45 | 1016.3 |
| 20260505025937 | 17 | 197 | 6.4 | 24.1 | 0.00 | 0.00 | 0.00 | 45 | 1016.4 |
| 20260505025435 | 17 | 199 | 8.0 | 24.1 | 0.00 | 0.00 | 0.00 | 44 | 1016.4 |
| 20260505024935 | 18 | 205 | 8.0 | 24.1 | 0.00 | 0.00 | 0.00 | 43 | 1016.4 |
| 20260505024409 | 18 | 200 | 8.0 | 25.7 | 0.00 | 0.00 | 0.00 | 43 | 1016.4 |
| 20260505023909 | 18 | 204 | 12.9 | 25.7 | 0.00 | 0.00 | 0.00 | 42 | 1016.3 |
| 20260505023409 | 18 | 197 | 8.0 | 22.5 | 0.00 | 0.00 | 0.00 | 42 | 1016.3 |
| 20260505022909 | 18 | 198 | 9.7 | 22.5 | 0.00 | 0.00 | 0.00 | 42 | 1016.3 |
| 20260505022409 | 18 | 197 | 8.0 | 20.9 | 0.00 | 0.00 | 0.00 | 43 | 1016.4 |
| 20260505021909 | 18 | 197 | 9.7 | 20.9 | 0.00 | 0.00 | 0.00 | 43 | 1016.4 |
| 20260505021409 | 18 | 198 | 8.0 | 20.9 | 0.00 | 0.00 | 0.00 | 43 | 1016.5 |
| 20260505020909 | 18 | 202 | 8.0 | 27.4 | 0.00 | 0.00 | 0.00 | 43 | 1016.5 |
| 20260505020409 | 18 | 201 | 9.7 | 27.4 | 0.00 | 0.00 | 0.00 | 43 | 1015.5 |
| 20260505015909 | 18 | 193 | 9.7 | 20.9 | 0.00 | 0.00 | 0.00 | 44 | 1015.5 |
| 20260505015409 | 18 | 195 | 6.4 | 20.9 | 0.00 | 0.00 | 0.00 | 44 | 1015.5 |
| 20260505014439 | 18 | 195 | 9.7 | 22.5 | 0.00 | 0.00 | 0.00 | 44 | 1015.5 |
| 20260505013938 | 18 | 200 | 8.0 | 22.5 | 0.00 | 0.00 | 0.00 | 45 | 1015.5 |
| 20260505013438 | 18 | 194 | 6.4 | 32.2 | 0.00 | 0.00 | 0.00 | 45 | 1015.4 |
| 20260505012938 | 18 | 198 | 9.7 | 32.2 | 0.00 | 0.00 | 0.00 | 44 | 1015.4 |
| 20260505012438 | 18 | 199 | 11.3 | 20.9 | 0.00 | 0.00 | 0.00 | 44 | 1015.3 |
| 20260505011938 | 18 | 195 | 8.0 | 19.3 | 0.00 | 0.00 | 0.00 | 44 | 1015.2 |
| 20260505011439 | 18 | 205 | 9.7 | 19.3 | 0.00 | 0.00 | 0.00 | 45 | 1015.3 |
| 20260505010938 | 18 | 198 | 8.0 | 20.9 | 0.00 | 0.00 | 0.00 | 46 | 1015.4 |
| 20260505010438 | 18 | 199 | 8.0 | 20.9 | 0.00 | 0.00 | 0.00 | 45 | 1015.2 |
| 20260505005938 | 18 | 195 | 9.7 | 20.9 | 0.00 | 0.00 | 0.00 | 44 | 1015.1 |
| 20260505005209 | 18 | 201 | 8.0 | 20.9 | 0.00 | 0.00 | 0.00 | 45 | 1015.0 |
| 20260505004709 | 18 | 196 | 6.4 | 16.1 | 0.00 | 0.00 | 0.00 | 45 | 1015.0 |
| 20260505004209 | 18 | 197 | 8.0 | 17.7 | 0.00 | 0.00 | 0.00 | 45 | 1015.0 |
| 20260505003709 | 18 | 199 | 8.0 | 17.7 | 0.00 | 0.00 | 0.00 | 45 | 1015.0 |
| 20260505003209 | 18 | 196 | 6.4 | 16.1 | 0.00 | 0.00 | 0.00 | 45 | 1015.0 |
| 20260505002709 | 18 | 201 | 6.4 | 19.3 | 0.00 | 0.00 | 0.00 | 45 | 1015.0 |
| 20260505002209 | 18 | 207 | 6.4 | 19.3 | 0.00 | 0.00 | 0.00 | 46 | 1015.0 |
| 20260505001709 | 18 | 201 | 6.4 | 14.5 | 0.00 | 0.00 | 0.00 | 46 | 1015.0 |
| 20260505001209 | 18 | 195 | 6.4 | 14.5 | 0.00 | 0.00 | 0.00 | 46 | 1014.9 |
| 20260505000709 | 18 | 196 | 6.4 | 17.7 | 0.00 | 0.00 | 0.00 | 46 | 1015.0 |
| 20260505000211 | 18 | 198 | 6.4 | 17.7 | 0.00 | 0.00 | 0.00 | 46 | 1015.0 |
| 20260504235709 | 19 | 197 | 8.0 | 16.1 | 0.00 | 0.00 | 0.00 | 46 | 1015.0 |
| 20260504235209 | 19 | 196 | 8.0 | 17.7 | 0.00 | 0.00 | 0.00 | 46 | 1014.9 |
| 20260504234710 | 19 | 194 | 8.0 | 19.3 | 0.00 | 0.00 | 0.00 | 46 | 1014.9 |
| 20260504234209 | 19 | 205 | 6.4 | 19.3 | 0.00 | 0.00 | 0.00 | 47 | 1014.8 |
| 20260504233709 | 19 | 201 | 8.0 | 17.7 | 0.00 | 0.00 | 0.00 | 47 | 1014.8 |
| 20260504233056 | 19 | 198 | 8.0 | 19.3 | 0.00 | 0.00 | 0.00 | 47 | 1014.8 |
| 20260504232558 | 19 | 195 | 9.7 | 19.3 | 0.00 | 0.00 | 0.00 | 47 | 1014.8 |
| 20260504231555 | 19 | 192 | 8.0 | 22.5 | 0.00 | 0.00 | 0.00 | 48 | 1014.8 |
| 20260504231055 | 19 | 196 | 11.3 | 22.5 | 0.00 | 0.00 | 0.00 | 48 | 1014.7 |
| 20260504230555 | 19 | 187 | 6.4 | 20.9 | 0.00 | 0.00 | 0.00 | 48 | 1014.7 |
| 20260504230055 | 19 | 186 | 4.8 | 20.9 | 0.00 | 0.00 | 0.00 | 47 | 1014.7 |
| 20260504225555 | 20 | 188 | 9.7 | 20.9 | 0.00 | 0.00 | 0.00 | 47 | 1014.6 |
| 20260504225055 | 20 | 200 | 8.0 | 20.9 | 0.00 | 0.00 | 0.00 | 47 | 1014.7 |
| 20260504224556 | 20 | 194 | 9.7 | 24.1 | 0.00 | 0.00 | 0.00 | 47 | 1014.7 |
| 20260504224055 | 20 | 201 | 9.7 | 24.1 | 0.00 | 0.00 | 0.00 | 47 | 1014.7 |
| 20260504223555 | 20 | 196 | 8.0 | 24.1 | 0.00 | 0.00 | 0.00 | 47 | 1014.6 |
| 20260504223055 | 20 | 179 | 6.4 | 24.1 | 0.00 | 0.00 | 0.00 | 48 | 1014.6 |
| 20260504222555 | 20 | 185 | 3.2 | 20.9 | 0.00 | 0.00 | 0.00 | 48 | 1014.6 |
| 20260504222056 | 20 | 192 | 8.0 | 16.1 | 0.00 | 0.00 | 0.00 | 47 | 1014.7 |
| 20260504221555 | 20 | 189 | 4.8 | 16.1 | 0.00 | 0.00 | 0.00 | 48 | 1014.8 |
| 20260504221055 | 20 | 199 | 4.8 | 16.1 | 0.00 | 0.00 | 0.00 | 47 | 1014.7 |
| 20260504220555 | 20 | 202 | 3.2 | 24.1 | 0.00 | 0.00 | 0.00 | 48 | 1014.8 |
| 20260504220055 | 20 | 201 | 6.4 | 24.1 | 0.00 | 0.00 | 0.00 | 47 | 1014.7 |
| 20260504215555 | 20 | 191 | 4.8 | 16.1 | 0.00 | 0.00 | 0.00 | 48 | 1014.7 |
| 20260504215055 | 20 | 189 | 4.8 | 20.9 | 0.00 | 0.00 | 0.00 | 47 | 1014.7 |
| 20260504214555 | 20 | 198 | 4.8 | 20.9 | 0.00 | 0.00 | 0.00 | 47 | 1014.7 |
| 20260504214055 | 21 | 193 | 6.4 | 16.1 | 0.00 | 0.00 | 0.00 | 47 | 1014.6 |
| 20260504213555 | 21 | 193 | 4.8 | 16.1 | 0.00 | 0.00 | 0.00 | 47 | 1014.8 |
| 20260504213055 | 21 | 198 | 1.6 | 16.1 | 0.00 | 0.00 | 0.00 | 47 | 1014.7 |
| 20260504212555 | 21 | 185 | 3.2 | 14.5 | 0.00 | 0.00 | 0.00 | 48 | 1014.7 |
| 20260504212055 | 21 | 187 | 4.8 | 16.1 | 0.00 | 0.00 | 0.00 | 47 | 1014.8 |
| 20260504211555 | 21 | 182 | 3.2 | 17.7 | 0.00 | 0.00 | 0.00 | 45 | 1014.8 |
| 20260504211056 | 21 | 178 | 8.0 | 17.7 | 0.00 | 0.00 | 0.00 | 46 | 1014.6 |
| 20260504210555 | 21 | 192 | 8.0 | 20.9 | 0.00 | 0.00 | 0.00 | 45 | 1014.7 |
| 20260504210055 | 21 | 201 | 9.7 | 20.9 | 0.00 | 0.00 | 0.00 | 45 | 1014.8 |
| 20260504205555 | 21 | 198 | 3.2 | 17.7 | 0.00 | 0.00 | 0.00 | 46 | 1014.8 |
| 20260504205055 | 21 | 182 | 4.8 | 12.9 | 0.00 | 0.00 | 0.00 | 45 | 1014.9 |
| 20260504204555 | 21 | 193 | 3.2 | 19.3 | 0.00 | 0.00 | 0.00 | 46 | 1014.9 |
| 20260504204055 | 21 | 193 | 8.0 | 19.3 | 0.00 | 0.00 | 0.00 | 44 | 1014.9 |
| 20260504203555 | 22 | 192 | 4.8 | 11.3 | 0.00 | 0.00 | 0.00 | 44 | 1015.0 |
| 20260504203055 | 22 | 189 | 3.2 | 9.7 | 0.00 | 0.00 | 0.00 | 45 | 1015.1 |
| 20260504202555 | 22 | 240 | 1.6 | 11.3 | 0.00 | 0.00 | 0.00 | 45 | 1015.1 |
| 20260504202055 | 22 | 194 | 1.6 | 11.3 | 0.00 | 0.00 | 0.00 | 46 | 1015.0 |
| 20260504201555 | 22 | 185 | 1.6 | 12.9 | 0.00 | 0.00 | 0.00 | 44 | 1015.1 |
| 20260504201055 | 22 | 189 | 4.8 | 12.9 | 0.00 | 0.00 | 0.00 | 44 | 1015.1 |
| 20260504200555 | 22 | 166 | 3.2 | 12.9 | 0.00 | 0.00 | 0.00 | 46 | 1015.2 |
| 20260504200055 | 22 | 199 | 1.6 | 12.9 | 0.00 | 0.00 | 0.00 | 45 | 1015.3 |
| 20260504195555 | 22 | 192 | 1.6 | 12.9 | 0.00 | 0.00 | 0.00 | 44 | 1015.4 |
| 20260504195055 | 22 | 211 | 1.6 | 16.1 | 0.00 | 0.00 | 0.00 | 45 | 1015.4 |
| 20260504194555 | 22 | 191 | 4.8 | 16.1 | 0.00 | 0.00 | 0.00 | 44 | 1015.5 |
| 20260504194058 | 22 | 190 | 6.4 | 12.9 | 0.00 | 0.00 | 0.00 | 44 | 1015.5 |
| 20260504193555 | 22 | 217 | 1.6 | 14.5 | 0.00 | 0.00 | 0.00 | 46 | 1015.7 |
| 20260504193057 | 22 | 197 | 3.2 | 14.5 | 0.00 | 0.00 | 0.00 | 44 | 1015.9 |
| 20260504192556 | 22 | 0 | 0.0 | 11.3 | 0.00 | 0.00 | 0.00 | 44 | 1016.0 |
| 20260504192057 | 22 | 0 | 0.0 | 11.3 | 0.00 | 0.00 | 0.00 | 45 | 1016.1 |
| 20260504191556 | 22 | 0 | 0.0 | 12.9 | 0.00 | 0.00 | 0.00 | 47 | 1016.1 |
| 20260504191057 | 22 | 205 | 3.2 | 12.9 | 0.00 | 0.00 | 0.00 | 44 | 1016.1 |
| 20260504190555 | 22 | 199 | 1.6 | 12.9 | 0.00 | 0.00 | 0.00 | 43 | 1016.2 |
| 20260504190055 | 22 | 0 | 0.0 | 11.3 | 0.00 | 0.00 | 0.00 | 46 | 1016.4 |
| 20260504185557 | 22 | 248 | 3.2 | 11.3 | 0.00 | 0.00 | 0.00 | 45 | 1016.4 |
| 20260504185055 | 22 | 0 | 0.0 | 6.4 | 0.00 | 0.00 | 0.00 | 44 | 1016.6 |
| 20260504184555 | 22 | 0 | 0.0 | 8.0 | 0.00 | 0.00 | 0.00 | 44 | 1016.5 |
| 20260504184056 | 22 | 271 | 1.6 | 8.0 | 0.00 | 0.00 | 0.00 | 48 | 1016.6 |
| 20260504183558 | 21 | 0 | 0.0 | 6.4 | 0.00 | 0.00 | 0.00 | 45 | 1016.6 |
| 20260504183055 | 21 | 0 | 0.0 | 9.7 | 0.00 | 0.00 | 0.00 | 46 | 1016.8 |
| 20260504182557 | 21 | 0 | 0.0 | 9.7 | 0.00 | 0.00 | 0.00 | 47 | 1016.8 |
| 20260504182056 | 21 | 202 | 1.6 | 9.7 | 0.00 | 0.00 | 0.00 | 46 | 1016.7 |
| 20260504181558 | 21 | 181 | 1.6 | 11.3 | 0.00 | 0.00 | 0.00 | 47 | 1016.8 |
| 20260504181055 | 21 | 187 | 3.2 | 11.3 | 0.00 | 0.00 | 0.00 | 45 | 1016.8 |
| 20260504180555 | 21 | 0 | 0.0 | 14.5 | 0.00 | 0.00 | 0.00 | 48 | 1016.8 |
| 20260504180055 | 21 | 198 | 8.0 | 14.5 | 0.00 | 0.00 | 0.00 | 45 | 1016.9 |
| 20260504175556 | 21 | 293 | 1.6 | 6.4 | 0.00 | 0.00 | 0.00 | 46 | 1016.9 |
| 20260504175055 | 21 | 0 | 0.0 | 6.4 | 0.00 | 0.00 | 0.00 | 47 | 1017.1 |
| 20260504174557 | 20 | 0 | 0.0 | 6.4 | 0.00 | 0.00 | 0.00 | 48 | 1017.1 |
| 20260504174055 | 20 | 0 | 0.0 | 9.7 | 0.00 | 0.00 | 0.00 | 47 | 1017.0 |
| 20260504173555 | 20 | 0 | 0.0 | 14.5 | 0.00 | 0.00 | 0.00 | 47 | 1017.1 |
| 20260504173058 | 20 | 305 | 1.6 | 14.5 | 0.00 | 0.00 | 0.00 | 46 | 1017.2 |
| 20260504172555 | 21 | 0 | 0.0 | 4.8 | 0.00 | 0.00 | 0.00 | 45 | 1017.2 |
| 20260504172056 | 21 | 0 | 0.0 | 6.4 | 0.00 | 0.00 | 0.00 | 47 | 1017.3 |
| 20260504171559 | 21 | 0 | 0.0 | 6.4 | 0.00 | 0.00 | 0.00 | 46 | 1017.4 |
| 20260504171037 | 20 | 0 | 0.0 | 9.7 | 0.00 | 0.00 | 0.00 | 48 | 1017.5 |
| 20260504170536 | 20 | 0 | 0.0 | 9.7 | 0.00 | 0.00 | 0.00 | 46 | 1017.3 |
| 20260504151028 | 17 | 312 | 3.2 | 14.5 | 0.00 | 0.00 | 0.00 | 47 | 1019.1 |
| 20260504150528 | 17 | 0 | 0.0 | 6.4 | 0.00 | 0.00 | 0.00 | 46 | 1019.2 |
| 20260504140839 | 16 | 0 | 0.0 | 8.0 | 0.00 | 0.00 | 0.00 | 47 | 1017.8 |
| 20260504140339 | 16 | 0 | 0.0 | 8.0 | 0.00 | 0.00 | 0.00 | 47 | 1017.8 |
| 20260504130339 | 15 | 0 | 0.0 | 0.0 | 0.00 | 0.00 | 0.00 | 51 | 1017.9 |
| 20260504110339 | 11 | 319 | 1.6 | 20.9 | 0.00 | 0.00 | 0.00 | 49 | 1017.8 |
| 20260504100614 | 11 | 0 | 0.0 | 17.7 | 0.00 | 0.00 | 0.00 | 47 | 1017.9 |
| 20260504100418 | 11 | 0 | 0.0 | 12.9 | 0.00 | 0.00 | 0.00 | 47 | 1017.8 |
| 20260504100114 | 11 | 0 | 0.0 | 12.9 | 0.00 | 0.00 | 0.00 | 47 | 1017.8 |
| 20260504090114 | 11 | 319 | 4.8 | 14.5 | 0.00 | 0.00 | 0.00 | 44 | 1017.8 |
| 20260504081614 | 11 | 319 | 9.7 | 20.9 | 0.00 | 0.00 | 0.00 | 42 | 1017.9 |
| 20260504081114 | 11 | 318 | 8.0 | 20.9 | 0.00 | 0.00 | 0.00 | 43 | 1017.9 |
| 20260504080614 | 11 | 311 | 8.0 | 19.3 | 0.00 | 0.00 | 0.00 | 46 | 1017.9 |
| 20260504080114 | 11 | 307 | 8.0 | 20.9 | 0.00 | 0.00 | 0.00 | 47 | 1017.9 |
| 20260504070143 | 12 | 0 | 0.0 | 16.1 | 0.00 | 0.00 | 0.00 | 55 | 1017.9 |
| 20260504060145 | 11 | 0 | 0.0 | 17.7 | 0.00 | 0.00 | 0.00 | 57 | 1018.0 |
| 20260504050309 | 12 | 0 | 0.0 | 3.2 | 0.00 | 0.00 | 0.00 | 51 | 1018.4 |
| 20260504045738 | 12 | 0 | 0.0 | 17.7 | 0.00 | 0.00 | 0.00 | 50 | 1018.4 |
| 20260504045237 | 12 | 0 | 0.0 | 17.7 | 0.00 | 0.00 | 0.00 | 48 | 1018.4 |
| 20260504044738 | 12 | 0 | 0.0 | 9.7 | 0.00 | 0.00 | 0.00 | 48 | 1018.4 |
| 20260504044237 | 12 | 0 | 0.0 | 0.0 | 0.00 | 0.00 | 0.00 | 47 | 1018.5 |
| 20260504043738 | 12 | 0 | 0.0 | 0.0 | 0.00 | 0.00 | 0.00 | 48 | 1018.5 |
| 20260504043239 | 12 | 0 | 0.0 | 1.6 | 0.00 | 0.00 | 0.00 | 48 | 1018.5 |
| 20260504042738 | 12 | 0 | 0.0 | 1.6 | 0.00 | 0.00 | 0.00 | 48 | 1018.6 |
| 20260504042238 | 12 | 0 | 0.0 | 0.0 | 0.00 | 0.00 | 0.00 | 48 | 1018.6 |
| 20260504041738 | 12 | 0 | 0.0 | 16.1 | 0.00 | 0.00 | 0.00 | 47 | 1018.6 |
| 20260504041238 | 12 | 0 | 0.0 | 16.1 | 0.00 | 0.00 | 0.00 | 48 | 1018.5 |
| 20260504040738 | 12 | 0 | 0.0 | 4.8 | 0.00 | 0.00 | 0.00 | 48 | 1018.6 |